Location: Claflin County Park
(44.8478°N, 87.5507°W)
Time: 03:07:02
(UTC+00:00)

USA 234 - Pass Details

Date: 17 March 2026
Orbit: 1102 x 1106 km, 123.0° (Epoch: 4 January)

Event Time Altitude Azimuth Distance (km) Brightness Sun altitude
Exits shadow 04:04:07 43° 315° (NW) 1,505 4.2 -39.7°
Drops below altitude 10° 04:08:18 10° 310° (NW) 2,969 6.2 -40.2°
Sets 04:10:47 0° 310° (NW) 3,930 7.0 -40.4°
